Regional Weather Roundup
Issued by NWS

Home | Current Version | Previous Version | Text Only | Print | Product List | Glossary On
Versions: 1 2 3 4 5 6 7 8 9 10 11 12 13 14 15 16 17 18 19 20 21 22 23 24 25 26 27 28 29 30 31 32 33 34 35 36 37 38 39 40 41 42 43 44 45 46 47 48 49 50
000
ASUS45 KPSR 261310
RWRAZ

ARIZONA REGIONAL HOURLY WEATHER ROUNDUP
NATIONAL WEATHER SERVICE PHOENIX AZ
600 AM MST FRI DEC 26 2014

NOTE: FAIR INDICATES FEW OR NO CLOUDS BELOW 12,000 FEET WITH NO
SIGNIFICANT WEATHER AND/OR OBSTRUCTIONS TO VISIBILITY.

AZZ001>003-036-261400-
NORTHWEST ARIZONA

CITY           SKY/WX    TMP DP  RH WIND       PRES   REMARKS
BULLHEAD CITY  CLEAR     43  18  36 N12       30.00S
KINGMAN        CLEAR     23  14  68 CALM      29.93R
$$

AZZ004>008-015-016-018-261400-
NORTH CENTRAL ARIZONA

CITY           SKY/WX    TMP DP  RH WIND       PRES   REMARKS
GRAND CANYON   PTCLDY    16  13  88 NW5       29.78R WCI   9
PRESCOTT       CLEAR     21  11  65 SW6       29.86R WCI  13
FLAGSTAFF      CLEAR     17  11  77 VRB6      29.75R WCI   9
PAYSON         CLEAR     25  12  58 W5        29.85R WCI  19
PAGE           PTCLDY    32  13  45 W5        29.80R WCI  27
$$

AZZ009>014-017-261400-
NORTHEAST ARIZONA

CITY           SKY/WX    TMP DP  RH WIND       PRES   REMARKS
WINSLOW        CLEAR     19  12  74 W6        29.82R WCI  11
SAINT JOHNS    MOCLDY    18  16  92 W3        29.78R
WINDOW ROCK    CLOUDY    17  12  80 SW5       29.71R WCI  10
SHOW LOW       CLEAR     18  10  73 S12       29.80R WCI   5
$$

AZZ023-261400-
GREATER PHOENIX AREA

CITY           SKY/WX    TMP DP  RH WIND       PRES   REMARKS
PHOENIX        CLEAR     41  17  38 CALM      29.91R
BUCKEYE          N/A     28  18  64 NW5       29.95R WCI  23
GLENDALE       CLEAR     39  18  41 CALM      29.95
LUKE AFB       CLEAR     37  18  46 E2        29.93R
DEER VALLEY    CLEAR     33  18  53 E5        29.91R WCI  29
SCOTTSDALE     CLEAR     35  20  54 CALM      29.92R
MESA-FALCON    CLEAR     34  16  47 E3        29.92
MESA-GATEWAY   CLEAR     30  19  64 E6        29.95R WCI  24
CHANDLER       CLEAR     36  19  51 VRB3      29.93
$$

AZZ027-028-261400-
SOUTHWEST MARICOPA COUNTY AND PINAL COUNTY

CITY           SKY/WX    TMP DP  RH WIND       PRES   REMARKS
CASA GRANDE    CLEAR     37  12  35 CALM      29.93R
GILA BEND      FAIR      35  18  49 S3        29.96R
$$

AZZ503-504-507>509-261400-
SOUTHEAST ARIZONA

CITY           SKY/WX    TMP DP  RH WIND       PRES   REMARKS
TUCSON         PTCLDY    41  27  57 SW3       29.94R
DAVIS-MONTHAN  PTCLDY    39  29  67 SW2       29.91R
RYAN FIELD       N/A     45  30  57 NW5       29.94
NOGALES        CLOUDY    39  34  82 CALM      29.91R
SIERRA VISTA   MIX PCPN  35  29  78 W8        29.89R WCI  29
DOUGLAS        LGT RAIN  36  33  89 N9        29.89R WCI  29
SAFFORD        PTCLDY    36  21  54 NW14      29.86R WCI  27
$$

AZZ020-021-025-026-031-261400-
SOUTHWEST ARIZONA

CITY           SKY/WX    TMP DP  RH WIND       PRES   REMARKS
YUMA           CLEAR    N/A N/A N/A N7        29.98R
$$

CAZ031-033-041-043-047-048-061-261400-
SOUTHERN CALIFORNIA

CITY           SKY/WX    TMP DP  RH WIND       PRES   REMARKS
DOWNTOWN L.A.  CLEAR     43  26  51 CALM      29.98R
L.A. AIRPORT   CLEAR     51  17  26 NE10      29.98R
SAN DIEGO      CLEAR     48  32  53 CALM      29.97R
BURBANK        CLEAR     47  16  29 N9        29.98R
ONTARIO        CLEAR     44  18  35 NE7       29.97R
RIVERSIDE      CLEAR     50  11  20 NE14G23   29.99R
PALM SPRINGS   CLEAR     50  12  21 VRB3      30.02R
EL CENTRO NAS  CLEAR     39  22  50 S5        30.00R
IMPERIAL       CLEAR     38  23  55 W6        29.99R WCI  33
BLYTHE         CLEAR     41  17  38 NW8       29.99R
NEEDLES        CLEAR     41  13  31 NW6       29.99R
$$

NVZ020-UTZ003-261400-
SOUTHERN NEVADA-UTAH

CITY           SKY/WX    TMP DP  RH WIND       PRES   REMARKS
LAS VEGAS      PTCLDY    42  10  27 NW15G23   29.95R
SALT LAKE CITY MOCLDY    24  17  74 N3        29.91R
$$

NMZ009-TXZ055-261400-
NEW MEXICO-WEST TEXAS

CITY           SKY/WX    TMP DP  RH WIND       PRES   REMARKS
ALBUQUERQUE    CLOUDY    31  29  92 SW3       29.75R
EL PASO        CLOUDY    43  33  68 W10       29.84R
$$


........................KEY........................
SKY/WX - SKY CONDITION/WEATHER
TMP    - TEMPERATURE IN FAHRENHEIT
DP     - DEW POINT IN FAHRENHEIT
RH     - RELATIVE HUMIDITY IN PERCENT
WIND   - DIRECTION AND SPEED IN MILES PER HOUR (MPH)
VRB    - VARIABLE WIND DIRECTION
PRES   - MEAN SEA LEVEL PRESSURE IN INCHES OF MERCURY
         F - FALLING PRESSURE   R - RISING PRESSURE
         S - STEADY PRESSURE
VSB    - VISIBILITY IN MILES
HX     - HEAT INDEX IN FAHRENHEIT
WCI    - WIND CHILL INDEX IN FAHRENHEIT
TC     - TEMPERATURE IN CELSIUS WHICH IS ALSO KNOWN AS
         TEMPERATURE IN CENTIGRADE
AFB    - AIR FORCE BASE
         LUKE AFB IS LUKE AIR FORCE BASE
         DAVIS-MONTHAN IS DAVIS-MONTHAN AIR FORCE BASE
NAS    - NAVAL AIR STATION
         EL CENTRO NAS IS EL CENTRO NAVAL AIR STATION
N/A    - NOT AVAILABLE



USA.gov is the U.S. government's official web portal to all federal, state and local government web resources and services.